owner,sensor,date,latitude,longitude,vertical_datum,wind_speed,wind_to_direction,wind_speed_of_gust,qcFlag 
DISL,ioos:station:DISL:DISL:1,2012-11-01T00:00:00Z,30.2513,-88.0778,9.68,2.48,243.2,-9999.0,'1111122,1111122,1111122' 
DISL,ioos:station:DISL:DISL:1,2012-11-01T00:30:00Z,30.2513,-88.0778,9.68,2.54,244.1,-9999.0,'1111122,1111122,1111122' 
DISL,ioos:station:DISL:DISL:1,2012-11-01T01:00:00Z,30.2513,-88.0778,9.68,2.65,245.1,-9999.0,'1111122,1111122,1111122' 
DISL,ioos:station:DISL:DISL:1,2012-11-01T01:30:00Z,30.2513,-88.0778,9.68,3.1,240.0,-9999.0,'1111122,1111122,1111122' 
DISL,ioos:station:DISL:DISL:1,2012-11-01T02:00:00Z,30.2513,-88.0778,9.68,3.23,235.3,-9999.0,'1111122,1111122,1111122' 
DISL,ioos:station:DISL:DISL:1,2012-11-01T02:30:00Z,30.2513,-88.0778,9.68,2.97,245.6,-9999.0,'1111122,1111122,1111122' 
DISL,ioos:station:DISL:DISL:1,2012-11-01T03:00:00Z,30.2513,-88.0778,9.68,3.5,225.1,-9999.0,'1111122,1111122,1111122' 
DISL,ioos:station:DISL:DISL:1,2012-11-01T03:30:00Z,30.2513,-88.0778,9.68,3.4,242.8,-9999.0,'1111122,1111122,1111122' 
DISL,ioos:station:DISL:DISL:1,2012-11-01T04:00:00Z,30.2513,-88.0778,9.68,3.26,242.5,-9999.0,'1111122,1111122,1111122' 
DISL,ioos:station:DISL:DISL:1,2012-11-01T04:30:00Z,30.2513,-88.0778,9.68,3.6,242.5,-9999.0,'1111122,1111122,1111122' 
DISL,ioos:station:DISL:DISL:1,2012-11-01T05:00:00Z,30.2513,-88.0778,9.68,3.68,251.7,-9999.0,'1111122,1111122,1111122' 
DISL,ioos:station:DISL:DISL:1,2012-11-01T05:30:00Z,30.2513,-88.0778,9.68,4.25,259.2,-9999.0,'1111122,1111122,1111122' 
DISL,ioos:station:DISL:DISL:1,2012-11-01T06:00:00Z,30.2513,-88.0778,9.68,3.98,259.7,-9999.0,'1111122,1111122,1111122' 
DISL,ioos:station:DISL:DISL:1,2012-11-01T06:30:00Z,30.2513,-88.0778,9.68,3.8,263.4,-9999.0,'1111122,1111122,1111122' 
DISL,ioos:station:DISL:DISL:1,2012-11-01T07:00:00Z,30.2513,-88.0778,9.68,3.82,269.6,-9999.0,'1111122,1111122,1111122' 
DISL,ioos:station:DISL:DISL:1,2012-11-01T07:30:00Z,30.2513,-88.0778,9.68,3.74,278.5,-9999.0,'1111122,1111122,1111122' 
DISL,ioos:station:DISL:DISL:1,2012-11-01T08:00:00Z,30.2513,-88.0778,9.68,5.46,256.9,-9999.0,'1111122,1111122,1111122' 
DISL,ioos:station:DISL:DISL:1,2012-11-01T08:30:00Z,30.2513,-88.0778,9.68,4.24,268.7,-9999.0,'1111122,1111122,1111122' 
DISL,ioos:station:DISL:DISL:1,2012-11-01T09:00:00Z,30.2513,-88.0778,9.68,3.91,270.8,-9999.0,'1111122,1111122,1111122' 
DISL,ioos:station:DISL:DISL:1,2012-11-01T09:30:00Z,30.2513,-88.0778,9.68,4.47,271.4,-9999.0,'1111122,1111122,1111122' 
DISL,ioos:station:DISL:DISL:1,2012-11-01T10:00:00Z,30.2513,-88.0778,9.68,4.78,280.7,-9999.0,'1111122,1111122,1111122' 
DISL,ioos:station:DISL:DISL:1,2012-11-01T10:30:00Z,30.2513,-88.0778,9.68,4.62,298.3,-9999.0,'1111122,1111122,1111122' 
DISL,ioos:station:DISL:DISL:1,2012-11-01T11:00:00Z,30.2513,-88.0778,9.68,3.6,305.4,-9999.0,'1111122,1111122,1111122' 
DISL,ioos:station:DISL:DISL:1,2012-11-01T11:30:00Z,30.2513,-88.0778,9.68,4.27,312.6,-9999.0,'1111122,1111122,1111122' 
DISL,ioos:station:DISL:DISL:1,2012-11-01T12:00:00Z,30.2513,-88.0778,9.68,4.15,344.1,-9999.0,'1111122,1111122,1111122' 
DISL,ioos:station:DISL:DISL:1,2012-11-01T12:30:00Z,30.2513,-88.0778,9.68,5.84,8.72,-9999.0,'1111122,1111122,1111122' 
DISL,ioos:station:DISL:DISL:1,2012-11-01T13:00:00Z,30.2513,-88.0778,9.68,5.44,22.61,-9999.0,'1111122,1111122,1111122' 
DISL,ioos:station:DISL:DISL:1,2012-11-01T13:30:00Z,30.2513,-88.0778,9.68,5.76,26.53,-9999.0,'1111122,1111122,1111122' 
DISL,ioos:station:DISL:DISL:1,2012-11-01T14:00:00Z,30.2513,-88.0778,9.68,5.06,30.44,-9999.0,'1111122,1111122,1111122' 
DISL,ioos:station:DISL:DISL:1,2012-11-01T14:30:00Z,30.2513,-88.0778,9.68,4.54,38.31,-9999.0,'1111122,1111122,1111122' 
DISL,ioos:station:DISL:DISL:1,2012-11-01T15:00:00Z,30.2513,-88.0778,9.68,3.62,31.28,-9999.0,'1111122,1111122,1111122' 
DISL,ioos:station:DISL:DISL:1,2012-11-01T15:30:00Z,30.2513,-88.0778,9.68,3.49,23.57,-9999.0,'1111122,1111122,1111122' 
DISL,ioos:station:DISL:DISL:1,2012-11-01T16:00:00Z,30.2513,-88.0778,9.68,2.67,0.818,-9999.0,'1111122,1111122,1111122' 
DISL,ioos:station:DISL:DISL:1,2012-11-01T16:30:00Z,30.2513,-88.0778,9.68,1.97,356.9,-9999.0,'1111122,1111122,1111122' 
DISL,ioos:station:DISL:DISL:1,2012-11-01T17:00:00Z,30.2513,-88.0778,9.68,1.73,345.6,-9999.0,'1111122,1111122,1111122' 
DISL,ioos:station:DISL:DISL:1,2012-11-01T17:30:00Z,30.2513,-88.0778,9.68,1.64,339.8,-9999.0,'1111122,1111122,1111122' 
DISL,ioos:station:DISL:DISL:1,2012-11-01T18:00:00Z,30.2513,-88.0778,9.68,1.08,340.9,-9999.0,'1111122,1111122,1111122' 
DISL,ioos:station:DISL:DISL:1,2012-11-01T18:30:00Z,30.2513,-88.0778,9.68,0.92,5.165,-9999.0,'1111122,1111122,1111122' 
DISL,ioos:station:DISL:DISL:1,2012-11-01T19:00:00Z,30.2513,-88.0778,9.68,1.3,74.7,-9999.0,'1111122,1111122,1111122' 
DISL,ioos:station:DISL:DISL:1,2012-11-01T19:30:00Z,30.2513,-88.0778,9.68,1.53,168.0,-9999.0,'1111122,1111122,1111122' 
DISL,ioos:station:DISL:DISL:1,2012-11-01T20:00:00Z,30.2513,-88.0778,9.68,1.46,177.3,-9999.0,'1111122,1111122,1111122' 
DISL,ioos:station:DISL:DISL:1,2012-11-01T20:30:00Z,30.2513,-88.0778,9.68,1.46,192.4,-9999.0,'1111122,1111122,1111122' 
DISL,ioos:station:DISL:DISL:1,2012-11-01T21:00:00Z,30.2513,-88.0778,9.68,1.52,193.1,-9999.0,'1111122,1111122,1111122' 
DISL,ioos:station:DISL:DISL:1,2012-11-01T21:30:00Z,30.2513,-88.0778,9.68,1.92,209.1,-9999.0,'1111122,1111122,1111122' 
DISL,ioos:station:DISL:DISL:1,2012-11-01T22:00:00Z,30.2513,-88.0778,9.68,2.2,207.0,-9999.0,'1111122,1111122,1111122' 
DISL,ioos:station:DISL:DISL:1,2012-11-01T22:30:00Z,30.2513,-88.0778,9.68,1.83,228.9,-9999.0,'1111122,1111122,1111122' 
DISL,ioos:station:DISL:DISL:1,2012-11-01T23:00:00Z,30.2513,-88.0778,9.68,1.24,231.9,-9999.0,'1111122,1111122,1111122' 
DISL,ioos:station:DISL:DISL:1,2012-11-01T23:30:00Z,30.2513,-88.0778,9.68,1.4,233.2,-9999.0,'1111122,1111122,1111122' 
DISL,ioos:station:DISL:DISL:1,2012-11-02T00:00:00Z,30.2513,-88.0778,9.68,1.33,232.9,-9999.0,'1111122,1111122,1111122' 
DISL,ioos:station:DISL:DISL:1,2012-11-02T00:30:00Z,30.2513,-88.0778,9.68,1.33,242.1,-9999.0,'1111122,1111122,1111122' 
DISL,ioos:station:DISL:DISL:1,2012-11-02T01:00:00Z,30.2513,-88.0778,9.68,1.22,236.8,-9999.0,'1111122,1111122,1111122' 
DISL,ioos:station:DISL:DISL:1,2012-11-02T01:30:00Z,30.2513,-88.0778,9.68,1.51,243.0,-9999.0,'1111122,1111122,1111122' 
DISL,ioos:station:DISL:DISL:1,2012-11-02T02:00:00Z,30.2513,-88.0778,9.68,0.94,263.5,-9999.0,'1111122,1111122,1111122' 
DISL,ioos:station:DISL:DISL:1,2012-11-02T02:30:00Z,30.2513,-88.0778,9.68,1.0,259.5,-9999.0,'1111122,1111122,1111122' 
DISL,ioos:station:DISL:DISL:1,2012-11-02T03:00:00Z,30.2513,-88.0778,9.68,1.37,280.0,-9999.0,'1111122,1111122,1111122' 
DISL,ioos:station:DISL:DISL:1,2012-11-02T03:30:00Z,30.2513,-88.0778,9.68,1.43,272.3,-9999.0,'1111122,1111122,1111122' 
DISL,ioos:station:DISL:DISL:1,2012-11-02T04:00:00Z,30.2513,-88.0778,9.68,1.07,278.2,-9999.0,'1111122,1111122,1111122' 
DISL,ioos:station:DISL:DISL:1,2012-11-02T04:30:00Z,30.2513,-88.0778,9.68,0.78,286.8,-9999.0,'1111122,1111122,1111122' 
DISL,ioos:station:DISL:DISL:1,2012-11-02T05:00:00Z,30.2513,-88.0778,9.68,0.82,287.5,-9999.0,'1111122,1111122,1111122' 
DISL,ioos:station:DISL:DISL:1,2012-11-02T05:30:00Z,30.2513,-88.0778,9.68,0.96,261.5,-9999.0,'1111122,1111122,1111122' 
DISL,ioos:station:DISL:DISL:1,2012-11-02T06:00:00Z,30.2513,-88.0778,9.68,0.22,71.3,-9999.0,'1111122,1111122,1111122' 
DISL,ioos:station:DISL:DISL:1,2012-11-02T06:30:00Z,30.2513,-88.0778,9.68,0.0,52.5,-9999.0,'1114422,1111122,1111122' 
DISL,ioos:station:DISL:DISL:1,2012-11-02T07:00:00Z,30.2513,-88.0778,9.68,0.31,100.1,-9999.0,'1111122,1111122,1111122' 
DISL,ioos:station:DISL:DISL:1,2012-11-02T07:30:00Z,30.2513,-88.0778,9.68,0.29,29.07,-9999.0,'1111122,1111122,1111122' 
DISL,ioos:station:DISL:DISL:1,2012-11-02T08:00:00Z,30.2513,-88.0778,9.68,0.0,0.0,-9999.0,'1114422,1114422,1111122' 
DISL,ioos:station:DISL:DISL:1,2012-11-02T08:30:00Z,30.2513,-88.0778,9.68,0.78,185.5,-9999.0,'1111122,1111122,1111122' 
DISL,ioos:station:DISL:DISL:1,2012-11-02T09:00:00Z,30.2513,-88.0778,9.68,1.03,242.3,-9999.0,'1111122,1111122,1111122' 
DISL,ioos:station:DISL:DISL:1,2012-11-02T09:30:00Z,30.2513,-88.0778,9.68,0.76,270.5,-9999.0,'1111122,1111122,1111122' 
DISL,ioos:station:DISL:DISL:1,2012-11-02T10:00:00Z,30.2513,-88.0778,9.68,1.0,231.4,-9999.0,'1111122,1111122,1111122' 
DISL,ioos:station:DISL:DISL:1,2012-11-02T10:30:00Z,30.2513,-88.0778,9.68,1.52,231.7,-9999.0,'1111122,1111122,1111122' 
DISL,ioos:station:DISL:DISL:1,2012-11-02T11:00:00Z,30.2513,-88.0778,9.68,1.53,265.9,-9999.0,'1111122,1111122,1111122' 
DISL,ioos:station:DISL:DISL:1,2012-11-02T11:30:00Z,30.2513,-88.0778,9.68,1.33,243.4,-9999.0,'1111122,1111122,1111122' 
DISL,ioos:station:DISL:DISL:1,2012-11-02T12:00:00Z,30.2513,-88.0778,9.68,1.08,233.6,-9999.0,'1111122,1111122,1111122' 
DISL,ioos:station:DISL:DISL:1,2012-11-02T12:30:00Z,30.2513,-88.0778,9.68,1.06,239.2,-9999.0,'1111122,1111122,1111122' 
DISL,ioos:station:DISL:DISL:1,2012-11-02T13:00:00Z,30.2513,-88.0778,9.68,0.12,107.5,-9999.0,'1111122,1111122,1111122' 
DISL,ioos:station:DISL:DISL:1,2012-11-02T13:30:00Z,30.2513,-88.0778,9.68,0.93,222.0,-9999.0,'1111122,1111122,1111122' 
DISL,ioos:station:DISL:DISL:1,2012-11-02T14:00:00Z,30.2513,-88.0778,9.68,1.64,236.9,-9999.0,'1111122,1111122,1111122' 
DISL,ioos:station:DISL:DISL:1,2012-11-02T14:30:00Z,30.2513,-88.0778,9.68,2.74,230.1,-9999.0,'1111122,1111122,1111122' 
DISL,ioos:station:DISL:DISL:1,2012-11-02T15:00:00Z,30.2513,-88.0778,9.68,3.59,239.2,-9999.0,'1111122,1111122,1111122' 
DISL,ioos:station:DISL:DISL:1,2012-11-02T15:30:00Z,30.2513,-88.0778,9.68,4.16,264.8,-9999.0,'1111122,1111122,1111122' 
DISL,ioos:station:DISL:DISL:1,2012-11-02T16:00:00Z,30.2513,-88.0778,9.68,3.57,244.5,-9999.0,'1111122,1111122,1111122' 
DISL,ioos:station:DISL:DISL:1,2012-11-02T16:30:00Z,30.2513,-88.0778,9.68,4.35,260.2,-9999.0,'1111122,1111122,1111122' 
DISL,ioos:station:DISL:DISL:1,2012-11-02T17:00:00Z,30.2513,-88.0778,9.68,3.56,244.7,-9999.0,'1111122,1111122,1111122' 
DISL,ioos:station:DISL:DISL:1,2012-11-02T17:30:00Z,30.2513,-88.0778,9.68,4.46,244.9,-9999.0,'1111122,1111122,1111122' 
DISL,ioos:station:DISL:DISL:1,2012-11-02T18:00:00Z,30.2513,-88.0778,9.68,4.27,257.9,-9999.0,'1111122,1111122,1111122' 
DISL,ioos:station:DISL:DISL:1,2012-11-02T18:30:00Z,30.2513,-88.0778,9.68,4.27,247.6,-9999.0,'1111122,1111122,1111122' 
DISL,ioos:station:DISL:DISL:1,2012-11-02T19:00:00Z,30.2513,-88.0778,9.68,4.09,265.6,-9999.0,'1111122,1111122,1111122' 
DISL,ioos:station:DISL:DISL:1,2012-11-02T19:30:00Z,30.2513,-88.0778,9.68,4.96,265.8,-9999.0,'1111122,1111122,1111122' 
DISL,ioos:station:DISL:DISL:1,2012-11-02T20:00:00Z,30.2513,-88.0778,9.68,3.71,259.2,-9999.0,'1111122,1111122,1111122' 
DISL,ioos:station:DISL:DISL:1,2012-11-02T20:30:00Z,30.2513,-88.0778,9.68,3.73,252.2,-9999.0,'1111122,1111122,1111122' 
DISL,ioos:station:DISL:DISL:1,2012-11-02T21:00:00Z,30.2513,-88.0778,9.68,3.87,252.4,-9999.0,'1111122,1111122,1111122' 
DISL,ioos:station:DISL:DISL:1,2012-11-02T21:30:00Z,30.2513,-88.0778,9.68,3.3,231.8,-9999.0,'1111122,1111122,1111122' 
DISL,ioos:station:DISL:DISL:1,2012-11-02T22:00:00Z,30.2513,-88.0778,9.68,3.54,245.7,-9999.0,'1111122,1111122,1111122' 
DISL,ioos:station:DISL:DISL:1,2012-11-02T22:30:00Z,30.2513,-88.0778,9.68,3.15,240.2,-9999.0,'1111122,1111122,1111122' 
DISL,ioos:station:DISL:DISL:1,2012-11-02T23:00:00Z,30.2513,-88.0778,9.68,2.95,250.6,-9999.0,'1111122,1111122,1111122' 
DISL,ioos:station:DISL:DISL:1,2012-11-02T23:30:00Z,30.2513,-88.0778,9.68,3.26,234.2,-9999.0,'1111122,1111122,1111122' 
DISL,ioos:station:DISL:DISL:1,2012-11-03T00:00:00Z,30.2513,-88.0778,9.68,3.08,240.6,-9999.0,'1111122,1111122,1111122' 
DISL,ioos:station:DISL:DISL:1,2012-11-03T00:30:00Z,30.2513,-88.0778,9.68,3.16,232.4,-9999.0,'1111122,1111122,1111122' 
DISL,ioos:station:DISL:DISL:1,2012-11-03T01:00:00Z,30.2513,-88.0778,9.68,3.48,228.8,-9999.0,'1111122,1111122,1111122' 
DISL,ioos:station:DISL:DISL:1,2012-11-03T01:30:00Z,30.2513,-88.0778,9.68,3.07,230.8,-9999.0,'1111122,1111122,1111122' 
DISL,ioos:station:DISL:DISL:1,2012-11-03T02:00:00Z,30.2513,-88.0778,9.68,3.58,232.5,-9999.0,'1111122,1111122,1111122' 
DISL,ioos:station:DISL:DISL:1,2012-11-03T02:30:00Z,30.2513,-88.0778,9.68,3.14,229.9,-9999.0,'1111122,1111122,1111122' 
DISL,ioos:station:DISL:DISL:1,2012-11-03T03:00:00Z,30.2513,-88.0778,9.68,3.42,231.4,-9999.0,'1111122,1111122,1111122' 
DISL,ioos:station:DISL:DISL:1,2012-11-03T03:30:00Z,30.2513,-88.0778,9.68,2.92,243.4,-9999.0,'1111122,1111122,1111122' 
DISL,ioos:station:DISL:DISL:1,2012-11-03T04:00:00Z,30.2513,-88.0778,9.68,2.95,248.3,-9999.0,'1111122,1111122,1111122' 
DISL,ioos:station:DISL:DISL:1,2012-11-03T04:30:00Z,30.2513,-88.0778,9.68,3.39,255.0,-9999.0,'1111122,1111122,1111122' 
DISL,ioos:station:DISL:DISL:1,2012-11-03T05:00:00Z,30.2513,-88.0778,9.68,2.88,245.6,-9999.0,'1111122,1111122,1111122' 
DISL,ioos:station:DISL:DISL:1,2012-11-03T05:30:00Z,30.2513,-88.0778,9.68,3.24,247.4,-9999.0,'1111122,1111122,1111122' 
DISL,ioos:station:DISL:DISL:1,2012-11-03T06:00:00Z,30.2513,-88.0778,9.68,3.28,240.9,-9999.0,'1111122,1111122,1111122' 
DISL,ioos:station:DISL:DISL:1,2012-11-03T06:30:00Z,30.2513,-88.0778,9.68,3.36,254.9,-9999.0,'1111122,1111122,1111122' 
DISL,ioos:station:DISL:DISL:1,2012-11-03T07:00:00Z,30.2513,-88.0778,9.68,3.88,261.9,-9999.0,'1111122,1111122,1111122' 
DISL,ioos:station:DISL:DISL:1,2012-11-03T07:30:00Z,30.2513,-88.0778,9.68,4.41,267.1,-9999.0,'1111122,1111122,1111122' 
DISL,ioos:station:DISL:DISL:1,2012-11-03T08:00:00Z,30.2513,-88.0778,9.68,4.01,269.0,-9999.0,'1111122,1111122,1111122' 
DISL,ioos:station:DISL:DISL:1,2012-11-03T08:30:00Z,30.2513,-88.0778,9.68,4.03,264.8,-9999.0,'1111122,1111122,1111122' 
DISL,ioos:station:DISL:DISL:1,2012-11-03T09:00:00Z,30.2513,-88.0778,9.68,3.94,264.0,-9999.0,'1111122,1111122,1111122' 
DISL,ioos:station:DISL:DISL:1,2012-11-03T09:30:00Z,30.2513,-88.0778,9.68,4.41,274.0,-9999.0,'1111122,1111122,1111122' 
DISL,ioos:station:DISL:DISL:1,2012-11-03T10:00:00Z,30.2513,-88.0778,9.68,4.28,272.3,-9999.0,'1111122,1111122,1111122' 
DISL,ioos:station:DISL:DISL:1,2012-11-03T10:30:00Z,30.2513,-88.0778,9.68,4.13,282.7,-9999.0,'1111122,1111122,1111122' 
DISL,ioos:station:DISL:DISL:1,2012-11-03T11:00:00Z,30.2513,-88.0778,9.68,3.98,274.1,-9999.0,'1111122,1111122,1111122' 
DISL,ioos:station:DISL:DISL:1,2012-11-03T11:30:00Z,30.2513,-88.0778,9.68,4.05,277.6,-9999.0,'1111122,1111122,1111122' 
DISL,ioos:station:DISL:DISL:1,2012-11-03T12:00:00Z,30.2513,-88.0778,9.68,4.01,272.3,-9999.0,'1111122,1111122,1111122' 
DISL,ioos:station:DISL:DISL:1,2012-11-03T12:30:00Z,30.2513,-88.0778,9.68,4.18,278.0,-9999.0,'1111122,1111122,1111122' 
DISL,ioos:station:DISL:DISL:1,2012-11-03T13:00:00Z,30.2513,-88.0778,9.68,4.68,282.2,-9999.0,'1111122,1111122,1111122' 
DISL,ioos:station:DISL:DISL:1,2012-11-03T13:30:00Z,30.2513,-88.0778,9.68,4.33,290.2,-9999.0,'1111122,1111122,1111122' 
DISL,ioos:station:DISL:DISL:1,2012-11-03T14:00:00Z,30.2513,-88.0778,9.68,3.8,312.4,-9999.0,'1111122,1111122,1111122' 
DISL,ioos:station:DISL:DISL:1,2012-11-03T14:30:00Z,30.2513,-88.0778,9.68,2.42,315.9,-9999.0,'1111122,1111122,1111122' 
DISL,ioos:station:DISL:DISL:1,2012-11-03T15:00:00Z,30.2513,-88.0778,9.68,2.65,310.5,-9999.0,'1111122,1111122,1111122' 
DISL,ioos:station:DISL:DISL:1,2012-11-03T15:30:00Z,30.2513,-88.0778,9.68,3.21,295.0,-9999.0,'1111122,1111122,1111122' 
DISL,ioos:station:DISL:DISL:1,2012-11-03T16:00:00Z,30.2513,-88.0778,9.68,3.37,290.8,-9999.0,'1111122,1111122,1111122' 
DISL,ioos:station:DISL:DISL:1,2012-11-03T16:30:00Z,30.2513,-88.0778,9.68,2.33,284.0,-9999.0,'1111122,1111122,1111122' 
DISL,ioos:station:DISL:DISL:1,2012-11-03T17:00:00Z,30.2513,-88.0778,9.68,2.13,328.9,-9999.0,'1111122,1111122,1111122' 
DISL,ioos:station:DISL:DISL:1,2012-11-03T17:30:00Z,30.2513,-88.0778,9.68,3.18,208.0,-9999.0,'1111122,1111122,1111122' 
DISL,ioos:station:DISL:DISL:1,2012-11-03T18:00:00Z,30.2513,-88.0778,9.68,3.27,231.5,-9999.0,'1111122,1111122,1111122' 
DISL,ioos:station:DISL:DISL:1,2012-11-03T18:30:00Z,30.2513,-88.0778,9.68,3.48,213.6,-9999.0,'1111122,1111122,1111122' 
DISL,ioos:station:DISL:DISL:1,2012-11-03T19:00:00Z,30.2513,-88.0778,9.68,3.02,224.0,-9999.0,'1111122,1111122,1111122' 
DISL,ioos:station:DISL:DISL:1,2012-11-03T19:30:00Z,30.2513,-88.0778,9.68,4.34,219.3,-9999.0,'1111122,1111122,1111122' 
DISL,ioos:station:DISL:DISL:1,2012-11-03T20:00:00Z,30.2513,-88.0778,9.68,3.69,212.4,-9999.0,'1111122,1111122,1111122' 
DISL,ioos:station:DISL:DISL:1,2012-11-03T20:30:00Z,30.2513,-88.0778,9.68,3.29,222.4,-9999.0,'1111122,1111122,1111122' 
DISL,ioos:station:DISL:DISL:1,2012-11-03T21:00:00Z,30.2513,-88.0778,9.68,3.24,224.0,-9999.0,'1111122,1111122,1111122' 
DISL,ioos:station:DISL:DISL:1,2012-11-03T21:30:00Z,30.2513,-88.0778,9.68,2.72,217.2,-9999.0,'1111122,1111122,1111122' 
DISL,ioos:station:DISL:DISL:1,2012-11-03T22:00:00Z,30.2513,-88.0778,9.68,2.84,219.3,-9999.0,'1111122,1111122,1111122' 
DISL,ioos:station:DISL:DISL:1,2012-11-03T22:30:00Z,30.2513,-88.0778,9.68,2.76,207.2,-9999.0,'1111122,1111122,1111122' 
DISL,ioos:station:DISL:DISL:1,2012-11-03T23:00:00Z,30.2513,-88.0778,9.68,2.51,210.3,-9999.0,'1111122,1111122,1111122' 
DISL,ioos:station:DISL:DISL:1,2012-11-03T23:30:00Z,30.2513,-88.0778,9.68,2.52,226.9,-9999.0,'1111122,1111122,1111122' 
DISL,ioos:station:DISL:DISL:1,2012-11-04T00:00:00Z,30.2513,-88.0778,9.68,2.14,225.1,-9999.0,'1111122,1111122,1111122' 
DISL,ioos:station:DISL:DISL:1,2012-11-04T00:30:00Z,30.2513,-88.0778,9.68,2.19,231.0,-9999.0,'1111122,1111122,1111122' 
DISL,ioos:station:DISL:DISL:1,2012-11-04T01:00:00Z,30.2513,-88.0778,9.68,1.78,239.3,-9999.0,'1111122,1111122,1111122' 
DISL,ioos:station:DISL:DISL:1,2012-11-04T01:30:00Z,30.2513,-88.0778,9.68,2.18,224.9,-9999.0,'1111122,1111122,1111122' 
DISL,ioos:station:DISL:DISL:1,2012-11-04T02:00:00Z,30.2513,-88.0778,9.68,2.53,221.1,-9999.0,'1111122,1111122,1111122' 
DISL,ioos:station:DISL:DISL:1,2012-11-04T02:30:00Z,30.2513,-88.0778,9.68,2.49,231.0,-9999.0,'1111122,1111122,1111122' 
DISL,ioos:station:DISL:DISL:1,2012-11-04T03:00:00Z,30.2513,-88.0778,9.68,2.79,228.2,-9999.0,'1111122,1111122,1111122' 
DISL,ioos:station:DISL:DISL:1,2012-11-04T03:30:00Z,30.2513,-88.0778,9.68,2.59,232.1,-9999.0,'1111122,1111122,1111122' 
DISL,ioos:station:DISL:DISL:1,2012-11-04T04:00:00Z,30.2513,-88.0778,9.68,2.87,234.4,-9999.0,'1111122,1111122,1111122' 
DISL,ioos:station:DISL:DISL:1,2012-11-04T04:30:00Z,30.2513,-88.0778,9.68,2.57,233.7,-9999.0,'1111122,1111122,1111122' 
DISL,ioos:station:DISL:DISL:1,2012-11-04T05:00:00Z,30.2513,-88.0778,9.68,2.54,235.4,-9999.0,'1111122,1111122,1111122' 
DISL,ioos:station:DISL:DISL:1,2012-11-04T05:30:00Z,30.2513,-88.0778,9.68,2.7,249.8,-9999.0,'1111122,1111122,1111122' 
DISL,ioos:station:DISL:DISL:1,2012-11-04T06:00:00Z,30.2513,-88.0778,9.68,2.6,263.4,-9999.0,'1111122,1111122,1111122' 
DISL,ioos:station:DISL:DISL:1,2012-11-04T06:30:00Z,30.2513,-88.0778,9.68,2.9,273.4,-9999.0,'1111122,1111122,1111122' 
DISL,ioos:station:DISL:DISL:1,2012-11-04T07:00:00Z,30.2513,-88.0778,9.68,3.25,263.0,-9999.0,'1111122,1111122,1111122' 
DISL,ioos:station:DISL:DISL:1,2012-11-04T07:30:00Z,30.2513,-88.0778,9.68,2.35,256.2,-9999.0,'1111122,1111122,1111122' 
DISL,ioos:station:DISL:DISL:1,2012-11-04T08:00:00Z,30.2513,-88.0778,9.68,2.55,264.6,-9999.0,'1111122,1111122,1111122' 
DISL,ioos:station:DISL:DISL:1,2012-11-04T08:30:00Z,30.2513,-88.0778,9.68,2.54,281.8,-9999.0,'1111122,1111122,1111122' 
DISL,ioos:station:DISL:DISL:1,2012-11-04T09:00:00Z,30.2513,-88.0778,9.68,2.77,277.0,-9999.0,'1111122,1111122,1111122' 
DISL,ioos:station:DISL:DISL:1,2012-11-04T09:30:00Z,30.2513,-88.0778,9.68,3.3,263.2,-9999.0,'1111122,1111122,1111122' 
DISL,ioos:station:DISL:DISL:1,2012-11-04T10:00:00Z,30.2513,-88.0778,9.68,2.96,269.3,-9999.0,'1111122,1111122,1111122' 
DISL,ioos:station:DISL:DISL:1,2012-11-04T10:30:00Z,30.2513,-88.0778,9.68,2.96,271.6,-9999.0,'1111122,1111122,1111122' 
DISL,ioos:station:DISL:DISL:1,2012-11-04T11:00:00Z,30.2513,-88.0778,9.68,3.22,276.0,-9999.0,'1111122,1111122,1111122' 
DISL,ioos:station:DISL:DISL:1,2012-11-04T11:30:00Z,30.2513,-88.0778,9.68,3.63,281.0,-9999.0,'1111122,1111122,1111122' 
DISL,ioos:station:DISL:DISL:1,2012-11-04T12:00:00Z,30.2513,-88.0778,9.68,2.84,275.4,-9999.0,'1111122,1111122,1111122' 
DISL,ioos:station:DISL:DISL:1,2012-11-04T12:30:00Z,30.2513,-88.0778,9.68,2.66,282.7,-9999.0,'1111122,1111122,1111122' 
DISL,ioos:station:DISL:DISL:1,2012-11-04T13:00:00Z,30.2513,-88.0778,9.68,3.56,312.5,-9999.0,'1111122,1111122,1111122' 
DISL,ioos:station:DISL:DISL:1,2012-11-04T13:30:00Z,30.2513,-88.0778,9.68,2.33,297.6,-9999.0,'1111122,1111122,1111122' 
DISL,ioos:station:DISL:DISL:1,2012-11-04T14:00:00Z,30.2513,-88.0778,9.68,3.55,309.7,-9999.0,'1111122,1111122,1111122' 
DISL,ioos:station:DISL:DISL:1,2012-11-04T14:30:00Z,30.2513,-88.0778,9.68,2.42,291.0,-9999.0,'1111122,1111122,1111122' 
DISL,ioos:station:DISL:DISL:1,2012-11-04T15:00:00Z,30.2513,-88.0778,9.68,5.35,323.9,-9999.0,'1111122,1111122,1111122' 
DISL,ioos:station:DISL:DISL:1,2012-11-04T15:30:00Z,30.2513,-88.0778,9.68,4.85,330.8,-9999.0,'1111122,1111122,1111122' 
DISL,ioos:station:DISL:DISL:1,2012-11-04T16:00:00Z,30.2513,-88.0778,9.68,3.57,315.9,-9999.0,'1111122,1111122,1111122' 
DISL,ioos:station:DISL:DISL:1,2012-11-04T16:30:00Z,30.2513,-88.0778,9.68,3.33,312.3,-9999.0,'1111122,1111122,1111122' 
DISL,ioos:station:DISL:DISL:1,2012-11-04T17:00:00Z,30.2513,-88.0778,9.68,2.28,357.0,-9999.0,'1111122,1111122,1111122' 
DISL,ioos:station:DISL:DISL:1,2012-11-04T17:30:00Z,30.2513,-88.0778,9.68,1.71,74.1,-9999.0,'1111122,1111122,1111122' 
DISL,ioos:station:DISL:DISL:1,2012-11-04T18:00:00Z,30.2513,-88.0778,9.68,2.02,68.29,-9999.0,'1111122,1111122,1111122' 
DISL,ioos:station:DISL:DISL:1,2012-11-04T18:30:00Z,30.2513,-88.0778,9.68,1.34,99.4,-9999.0,'1111122,1111122,1111122' 
DISL,ioos:station:DISL:DISL:1,2012-11-04T19:00:00Z,30.2513,-88.0778,9.68,2.36,100.5,-9999.0,'1111122,1111122,1111122' 
DISL,ioos:station:DISL:DISL:1,2012-11-04T19:30:00Z,30.2513,-88.0778,9.68,1.54,144.3,-9999.0,'1111122,1111122,1111122' 
DISL,ioos:station:DISL:DISL:1,2012-11-04T20:00:00Z,30.2513,-88.0778,9.68,1.3,206.2,-9999.0,'1111122,1111122,1111122' 
DISL,ioos:station:DISL:DISL:1,2012-11-04T20:30:00Z,30.2513,-88.0778,9.68,3.15,280.5,-9999.0,'1111122,1111122,1111122' 
DISL,ioos:station:DISL:DISL:1,2012-11-04T21:00:00Z,30.2513,-88.0778,9.68,5.99,325.3,-9999.0,'1111122,1111122,1111122' 
DISL,ioos:station:DISL:DISL:1,2012-11-04T21:30:00Z,30.2513,-88.0778,9.68,1.32,238.7,-9999.0,'1111122,1111122,1111122' 
DISL,ioos:station:DISL:DISL:1,2012-11-04T22:00:00Z,30.2513,-88.0778,9.68,2.02,266.6,-9999.0,'1111122,1111122,1111122' 
DISL,ioos:station:DISL:DISL:1,2012-11-04T22:30:00Z,30.2513,-88.0778,9.68,2.55,269.7,-9999.0,'1111122,1111122,1111122' 
DISL,ioos:station:DISL:DISL:1,2012-11-04T23:00:00Z,30.2513,-88.0778,9.68,2.25,279.3,-9999.0,'1111122,1111122,1111122' 
DISL,ioos:station:DISL:DISL:1,2012-11-04T23:30:00Z,30.2513,-88.0778,9.68,4.36,327.7,-9999.0,'1111122,1111122,1111122' 
DISL,ioos:station:DISL:DISL:1,2012-11-05T00:00:00Z,30.2513,-88.0778,9.68,4.5,344.2,-9999.0,'1111122,1111122,1111122' 
DISL,ioos:station:DISL:DISL:1,2012-11-05T00:30:00Z,30.2513,-88.0778,9.68,4.85,340.6,-9999.0,'1111122,1111122,1111122' 
DISL,ioos:station:DISL:DISL:1,2012-11-05T01:00:00Z,30.2513,-88.0778,9.68,4.59,336.4,-9999.0,'1111122,1111122,1111122' 
DISL,ioos:station:DISL:DISL:1,2012-11-05T01:30:00Z,30.2513,-88.0778,9.68,4.42,341.7,-9999.0,'1111122,1111122,1111122' 
DISL,ioos:station:DISL:DISL:1,2012-11-05T02:00:00Z,30.2513,-88.0778,9.68,4.53,343.0,-9999.0,'1111122,1111122,1111122' 
DISL,ioos:station:DISL:DISL:1,2012-11-05T02:30:00Z,30.2513,-88.0778,9.68,3.91,333.7,-9999.0,'1111122,1111122,1111122' 
DISL,ioos:station:DISL:DISL:1,2012-11-05T03:00:00Z,30.2513,-88.0778,9.68,4.08,325.3,-9999.0,'1111122,1111122,1111122' 
DISL,ioos:station:DISL:DISL:1,2012-11-05T03:30:00Z,30.2513,-88.0778,9.68,3.94,333.2,-9999.0,'1111122,1111122,1111122' 
DISL,ioos:station:DISL:DISL:1,2012-11-05T04:00:00Z,30.2513,-88.0778,9.68,4.71,354.9,-9999.0,'1111122,1111122,1111122' 